Time,TemperatureF,DewpointF,PressureIn,WindDirection,WindDirectionDegrees,WindSpeedMPH,WindSpeedGustMPH,Humidity,HourlyPrecipIn,Conditions,Clouds,dailyrainin,SoftwareType,DateUTC
2013-02-21 00:00:00,23.8,9.1,29.79,NW,318,19.6,19.6,53,0.00,CLR,FEW,0.00,WeatherDisplay:10.37,2013-02-21 05:00:00,
2013-02-21 00:05:00,23.7,9.0,29.79,West,267,14.0,14.0,53,0.00,CLR,FEW,0.00,WeatherDisplay:10.37,2013-02-21 05:05:00,
2013-02-21 00:10:00,23.7,9.5,29.80,WNW,301,23.0,23.0,54,0.00,CLR,FEW,0.00,WeatherDisplay:10.37,2013-02-21 05:10:00,
2013-02-21 00:15:00,23.7,9.0,29.80,NW,314,13.8,13.8,53,0.00,CLR,FEW,0.00,WeatherDisplay:10.37,2013-02-21 05:15:00,
2013-02-21 00:20:00,23.7,9.5,29.80,NW,320,20.7,20.7,54,0.00,CLR,FEW,0.00,WeatherDisplay:10.37,2013-02-21 05:20:00,
2013-02-21 00:25:00,23.7,9.5,29.80,WNW,286,18.4,18.4,54,0.00,CLR,FEW,0.00,WeatherDisplay:10.37,2013-02-21 05:25:00,
2013-02-21 00:30:00,23.7,9.5,29.81,West,278,18.4,18.4,54,0.00,CLR,FEW,0.00,WeatherDisplay:10.37,2013-02-21 05:30:00,
2013-02-21 00:35:00,23.7,9.5,29.80,WNW,297,16.0,16.0,54,0.00,CLR,FEW,0.00,WeatherDisplay:10.37,2013-02-21 05:35:00,
2013-02-21 00:40:00,23.7,9.5,29.81,West,273,12.0,12.0,54,0.00,CLR,FEW,0.00,WeatherDisplay:10.37,2013-02-21 05:40:00,
2013-02-21 00:45:00,23.8,9.6,29.81,West,274,17.3,17.3,54,0.00,CLR,FEW,0.00,WeatherDisplay:10.37,2013-02-21 05:45:00,
2013-02-21 00:50:00,23.7,9.5,29.81,NW,307,13.8,13.8,54,0.00,CLR,FEW,0.00,WeatherDisplay:10.37,2013-02-21 05:50:00,
2013-02-21 00:55:00,23.8,10.0,29.81,WNW,295,20.7,20.7,55,0.00,CLR,FEW,0.00,WeatherDisplay:10.37,2013-02-21 05:55:00,
2013-02-21 01:00:00,23.7,9.9,29.80,WNW,294,13.8,13.8,55,0.00,CLR,FEW,0.00,WeatherDisplay:10.37,2013-02-21 06:00:00,
2013-02-21 01:05:00,23.6,9.8,29.80,WNW,286,15.0,15.0,55,0.00,CLR,FEW,0.00,WeatherDisplay:10.37,2013-02-21 06:05:00,
2013-02-21 01:10:00,23.6,9.8,29.81,West,276,15.0,15.0,55,0.00,CLR,FEW,0.00,WeatherDisplay:10.37,2013-02-21 06:10:00,
2013-02-21 01:15:00,23.5,9.7,29.80,West,278,10.4,10.4,55,0.00,CLR,FEW,0.00,WeatherDisplay:10.37,2013-02-21 06:15:00,
2013-02-21 01:20:00,23.5,9.7,29.80,WNW,294,15.0,15.0,55,0.00,CLR,FEW,0.00,WeatherDisplay:10.37,2013-02-21 06:20:00,
2013-02-21 01:25:00,23.4,9.6,29.80,WNW,301,17.3,17.3,55,0.00,CLR,FEW,0.00,WeatherDisplay:10.37,2013-02-21 06:25:00,
2013-02-21 01:30:00,23.4,9.6,29.80,NW,314,19.6,19.6,55,0.00,CLR,FEW,0.00,WeatherDisplay:10.37,2013-02-21 06:30:00,
2013-02-21 01:35:00,23.4,9.6,29.80,WNW,291,11.5,11.5,55,0.00,CLR,FEW,0.00,WeatherDisplay:10.37,2013-02-21 06:35:00,
2013-02-21 01:40:00,23.4,9.6,29.80,NW,310,15.0,15.0,55,0.00,CLR,FEW,0.00,WeatherDisplay:10.37,2013-02-21 06:40:00,
2013-02-21 01:45:00,23.4,10.0,29.80,WNW,301,12.7,12.7,56,0.00,CLR,FEW,0.00,WeatherDisplay:10.37,2013-02-21 06:45:00,
2013-02-21 01:50:00,23.3,9.9,29.81,WNW,293,7.0,7.0,56,0.00,CLR,FEW,0.00,WeatherDisplay:10.37,2013-02-21 06:50:00,
2013-02-21 01:55:00,23.3,9.9,29.80,West,279,6.9,6.9,56,0.00,CLR,FEW,0.00,WeatherDisplay:10.37,2013-02-21 06:55:00,
2013-02-21 02:00:00,23.3,9.9,29.81,West,281,8.1,8.1,56,0.00,CLR,FEW,0.00,WeatherDisplay:10.37,2013-02-21 07:00:00,
2013-02-21 02:05:00,23.3,9.9,29.81,WNW,295,10.4,10.4,56,0.00,CLR,FEW,0.00,WeatherDisplay:10.37,2013-02-21 07:05:00,
2013-02-21 02:10:00,23.3,10.3,29.81,WNW,299,10.0,10.0,57,0.00,CLR,FEW,0.00,WeatherDisplay:10.37,2013-02-21 07:10:00,
2013-02-21 02:15:00,23.3,9.9,29.81,West,261,13.8,13.8,56,0.00,CLR,FEW,0.00,WeatherDisplay:10.37,2013-02-21 07:15:00,
2013-02-21 02:20:00,23.3,10.3,29.81,WSW,248,11.5,11.5,57,0.00,CLR,FEW,0.00,WeatherDisplay:10.37,2013-02-21 07:20:00,
2013-02-21 02:25:00,23.4,10.4,29.81,WNW,286,12.7,12.7,57,0.00,CLR,FEW,0.00,WeatherDisplay:10.37,2013-02-21 07:25:00,
2013-02-21 02:30:00,23.2,10.2,29.81,West,263,13.8,13.8,57,0.00,CLR,FEW,0.00,WeatherDisplay:10.37,2013-02-21 07:30:00,
2013-02-21 02:35:00,23.1,9.7,29.81,WNW,287,8.0,8.0,56,0.00,CLR,FEW,0.00,WeatherDisplay:10.37,2013-02-21 07:35:00,
2013-02-21 02:40:00,23.1,10.1,29.81,WNW,294,10.4,10.4,57,0.00,CLR,FEW,0.00,WeatherDisplay:10.37,2013-02-21 07:40:00,
2013-02-21 02:45:00,23.1,9.7,29.81,West,276,11.5,11.5,56,0.00,CLR,FEW,0.00,WeatherDisplay:10.37,2013-02-21 07:45:00,
2013-02-21 02:50:00,23.2,9.8,29.81,WNW,292,11.0,11.0,56,0.00,CLR,FEW,0.00,WeatherDisplay:10.37,2013-02-21 07:50:00,
2013-02-21 02:55:00,23.2,10.2,29.81,WNW,298,11.5,11.5,57,0.00,CLR,FEW,0.00,WeatherDisplay:10.37,2013-02-21 07:55:00,
2013-02-21 03:00:00,23.1,10.1,29.80,NW,317,18.4,18.4,57,0.00,CLR,FEW,0.00,WeatherDisplay:10.37,2013-02-21 08:00:00,
2013-02-21 03:05:00,23.1,10.1,29.80,NW,309,6.9,6.9,57,0.00,CLR,FEW,0.00,WeatherDisplay:10.37,2013-02-21 08:05:00,
2013-02-21 03:10:00,22.9,9.9,29.81,WNW,285,6.9,6.9,57,0.00,CLR,FEW,0.00,WeatherDisplay:10.37,2013-02-21 08:10:00,
2013-02-21 03:15:00,23.3,10.3,29.81,West,279,11.5,11.5,57,0.00,CLR,FEW,0.00,WeatherDisplay:10.37,2013-02-21 08:15:00,
2013-02-21 03:20:00,23.3,10.3,29.80,WNW,291,12.0,12.0,57,0.00,CLR,FEW,0.00,WeatherDisplay:10.37,2013-02-21 08:20:00,
2013-02-21 03:25:00,23.4,10.4,29.81,West,277,12.0,12.0,57,0.00,CLR,FEW,0.00,WeatherDisplay:10.37,2013-02-21 08:25:00,
2013-02-21 03:30:00,23.7,11.1,29.82,West,273,10.4,10.4,58,0.00,CLR,FEW,0.00,WeatherDisplay:10.37,2013-02-21 08:30:00,
2013-02-21 03:35:00,23.3,10.3,29.80,WNW,294,9.2,9.2,57,0.00,CLR,FEW,0.00,WeatherDisplay:10.37,2013-02-21 08:35:00,
2013-02-21 03:40:00,23.3,10.7,29.80,West,274,11.5,11.5,58,0.00,CLR,FEW,0.00,WeatherDisplay:10.37,2013-02-21 08:40:00,
2013-02-21 03:45:00,23.4,10.8,29.80,West,263,5.0,5.6,58,0.00,CLR,FEW,0.00,WeatherDisplay:10.37,2013-02-21 08:45:00,
2013-02-21 03:50:00,23.4,10.8,29.81,WNW,289,11.5,11.5,58,0.00,CLR,FEW,0.00,WeatherDisplay:10.37,2013-02-21 08:50:00,
2013-02-21 03:55:00,23.5,10.9,29.80,WNW,282,9.2,9.2,58,0.00,CLR,FEW,0.00,WeatherDisplay:10.37,2013-02-21 08:55:00,
2013-02-21 04:00:00,23.7,11.4,29.80,WNW,288,11.5,11.5,59,0.00,CLR,FEW,0.00,WeatherDisplay:10.37,2013-02-21 09:00:00,
2013-02-21 04:05:00,23.5,10.9,29.81,West,273,9.2,9.2,58,0.00,CLR,FEW,0.00,WeatherDisplay:10.37,2013-02-21 09:05:00,
2013-02-21 04:10:00,23.4,10.8,29.81,WNW,291,8.1,8.1,58,0.00,CLR,FEW,0.00,WeatherDisplay:10.37,2013-02-21 09:10:00,
2013-02-21 04:15:00,23.4,10.8,29.81,West,280,18.4,18.4,58,0.00,CLR,FEW,0.00,WeatherDisplay:10.37,2013-02-21 09:15:00,
2013-02-21 04:20:00,23.4,10.8,29.81,WNW,286,14.0,14.0,58,0.00,CLR,FEW,0.00,WeatherDisplay:10.37,2013-02-21 09:20:00,
2013-02-21 04:25:00,23.4,10.8,29.81,WNW,290,18.4,18.4,58,0.00,CLR,FEW,0.00,WeatherDisplay:10.37,2013-02-21 09:25:00,
2013-02-21 04:30:00,23.5,10.9,29.82,West,278,10.4,10.4,58,0.00,CLR,FEW,0.00,WeatherDisplay:10.37,2013-02-21 09:30:00,
2013-02-21 04:35:00,23.4,10.8,29.81,WNW,299,9.2,9.2,58,0.00,CLR,FEW,0.00,WeatherDisplay:10.37,2013-02-21 09:35:00,
2013-02-21 04:40:00,23.6,11.4,29.82,West,268,16.1,16.1,59,0.00,CLR,FEW,0.00,WeatherDisplay:10.37,2013-02-21 09:40:00,
2013-02-21 04:45:00,23.7,11.4,29.82,NW,305,11.5,11.5,59,0.00,CLR,FEW,0.00,WeatherDisplay:10.37,2013-02-21 09:45:00,
2013-02-21 04:50:00,23.6,11.0,29.82,WNW,292,24.2,24.2,58,0.00,CLR,FEW,0.00,WeatherDisplay:10.37,2013-02-21 09:50:00,
2013-02-21 04:55:00,23.5,10.9,29.82,NW,304,19.6,19.6,58,0.00,CLR,FEW,0.00,WeatherDisplay:10.37,2013-02-21 09:55:00,
2013-02-21 05:00:00,23.5,10.9,29.83,NW,318,17.3,17.3,58,0.00,CLR,FEW,0.00,WeatherDisplay:10.37,2013-02-21 10:00:00,
2013-02-21 05:05:00,23.5,10.9,29.83,WNW,284,16.1,16.1,58,0.00,CLR,FEW,0.00,WeatherDisplay:10.37,2013-02-21 10:05:00,
2013-02-21 05:10:00,23.5,10.9,29.83,WNW,282,23.0,23.0,58,0.00,CLR,FEW,0.00,WeatherDisplay:10.37,2013-02-21 10:10:00,
2013-02-21 05:15:00,23.5,10.9,29.84,NW,322,23.0,23.0,58,0.00,CLR,FEW,0.00,WeatherDisplay:10.37,2013-02-21 10:15:00,
2013-02-21 05:20:00,23.4,10.8,29.84,West,264,12.0,12.0,58,0.00,CLR,FEW,0.00,WeatherDisplay:10.37,2013-02-21 10:20:00,
2013-02-21 05:25:00,23.4,10.8,29.84,NW,311,15.0,15.0,58,0.00,CLR,FEW,0.00,WeatherDisplay:10.37,2013-02-21 10:25:00,
2013-02-21 05:30:00,23.4,10.8,29.84,NW,309,9.2,9.2,58,0.00,CLR,FEW,0.00,WeatherDisplay:10.37,2013-02-21 10:30:00,
2013-02-21 05:35:00,23.2,11.0,29.84,NW,319,18.4,18.4,59,0.00,CLR,FEW,0.00,WeatherDisplay:10.37,2013-02-21 10:35:00,
2013-02-21 05:40:00,23.0,10.8,29.84,WNW,291,18.4,18.4,59,0.00,CLR,FEW,0.00,WeatherDisplay:10.37,2013-02-21 10:40:00,
2013-02-21 05:45:00,23.0,10.8,29.84,WNW,286,17.3,17.3,59,0.00,CLR,FEW,0.00,WeatherDisplay:10.37,2013-02-21 10:45:00,
2013-02-21 05:50:00,23.0,11.2,29.84,WNW,287,16.1,16.1,60,0.00,CLR,FEW,0.00,WeatherDisplay:10.37,2013-02-21 10:50:00,
2013-02-21 05:55:00,23.0,10.8,29.84,WNW,299,13.8,13.8,59,0.00,CLR,FEW,0.00,WeatherDisplay:10.37,2013-02-21 10:55:00,
2013-02-21 06:00:00,23.0,10.8,29.84,WNW,283,19.6,19.6,59,0.00,CLR,FEW,0.00,WeatherDisplay:10.37,2013-02-21 11:00:00,
2013-02-21 06:05:00,23.0,10.4,29.84,NNW,330,13.8,13.8,58,0.00,CLR,FEW,0.00,WeatherDisplay:10.37,2013-02-21 11:05:00,
2013-02-21 06:10:00,23.2,11.0,29.84,WNW,292,3.5,3.5,59,0.00,CLR,FEW,0.00,WeatherDisplay:10.37,2013-02-21 11:10:00,
2013-02-21 06:15:00,23.2,10.6,29.84,WNW,282,13.8,13.8,58,0.00,CLR,FEW,0.00,WeatherDisplay:10.37,2013-02-21 11:15:00,
2013-02-21 06:20:00,23.2,10.2,29.83,WNW,299,21.9,21.9,57,0.00,CLR,FEW,0.00,WeatherDisplay:10.37,2013-02-21 11:20:00,
2013-02-21 06:25:00,23.3,10.3,29.83,WNW,283,23.0,23.0,57,0.00,CLR,FEW,0.00,WeatherDisplay:10.37,2013-02-21 11:25:00,
2013-02-21 06:30:00,23.3,10.3,29.83,NW,317,19.6,19.6,57,0.00,CLR,FEW,0.00,WeatherDisplay:10.37,2013-02-21 11:30:00,
2013-02-21 06:35:00,23.3,10.3,29.84,WNW,297,13.8,13.8,57,0.00,CLR,FEW,0.00,WeatherDisplay:10.37,2013-02-21 11:35:00,
2013-02-21 06:40:00,23.4,10.4,29.84,West,281,11.5,11.5,57,0.00,CLR,FEW,0.00,WeatherDisplay:10.37,2013-02-21 11:40:00,
2013-02-21 06:45:00,23.4,10.4,29.84,WNW,283,10.4,10.4,57,0.00,CLR,FEW,0.00,WeatherDisplay:10.37,2013-02-21 11:45:00,
2013-02-21 06:50:00,23.5,10.1,29.84,West,274,11.5,11.5,56,0.00,CLR,FEW,0.00,WeatherDisplay:10.37,2013-02-21 11:50:00,
2013-02-21 06:55:00,23.5,10.5,29.84,WSW,251,12.0,12.0,57,0.00,CLR,FEW,0.00,WeatherDisplay:10.37,2013-02-21 11:55:00,
2013-02-21 07:00:00,23.5,10.1,29.84,NW,314,12.0,12.0,56,0.00,CLR,FEW,0.00,WeatherDisplay:10.37,2013-02-21 12:00:00,
2013-02-21 07:05:00,23.6,10.6,29.84,WNW,286,9.0,9.0,57,0.00,CLR,FEW,0.00,WeatherDisplay:10.37,2013-02-21 12:05:00,
2013-02-21 07:10:00,23.6,10.6,29.83,WNW,288,16.1,16.1,57,0.00,CLR,FEW,0.00,WeatherDisplay:10.37,2013-02-21 12:10:00,
2013-02-21 07:15:00,23.6,10.6,29.85,West,278,18.4,18.4,57,0.00,CLR,FEW,0.00,WeatherDisplay:10.37,2013-02-21 12:15:00,
2013-02-21 07:20:00,23.6,10.6,29.83,West,262,19.6,19.6,57,0.00,CLR,FEW,0.00,WeatherDisplay:10.37,2013-02-21 12:20:00,
2013-02-21 07:25:00,23.8,11.2,29.84,WNW,289,13.8,13.8,58,0.00,CLR,FEW,0.00,WeatherDisplay:10.37,2013-02-21 12:25:00,
2013-02-21 07:30:00,23.7,10.7,29.83,WNW,282,13.8,13.8,57,0.00,CLR,FEW,0.00,WeatherDisplay:10.37,2013-02-21 12:30:00,
2013-02-21 07:35:00,23.8,10.8,29.83,WNW,292,11.5,11.5,57,0.00,CLR,FEW,0.00,WeatherDisplay:10.37,2013-02-21 12:35:00,
2013-02-21 07:40:00,24.1,11.0,29.82,West,274,12.7,12.7,57,0.00,CLR,FEW,0.00,WeatherDisplay:10.37,2013-02-21 12:40:00,
2013-02-21 07:45:00,24.1,11.0,29.82,WNW,282,21.0,21.0,57,0.00,CLR,FEW,0.00,WeatherDisplay:10.37,2013-02-21 12:45:00,
2013-02-21 07:50:00,24.2,11.5,29.82,West,280,10.4,10.4,58,0.00,CLR,FEW,0.00,WeatherDisplay:10.37,2013-02-21 12:50:00,
2013-02-21 07:55:00,24.3,11.2,29.82,WSW,250,16.0,16.0,57,0.00,CLR,FEW,0.00,WeatherDisplay:10.37,2013-02-21 12:55:00,
2013-02-21 08:00:00,24.3,10.8,29.82,West,275,19.6,19.6,56,0.00,CLR,FEW,0.00,WeatherDisplay:10.37,2013-02-21 13:00:00,
2013-02-21 08:05:00,24.3,10.8,29.82,SW,231,18.4,18.4,56,0.00,CLR,FEW,0.00,WeatherDisplay:10.37,2013-02-21 13:05:00,
2013-02-21 08:10:00,24.3,10.8,29.83,WNW,298,15.0,15.0,56,0.00,CLR,FEW,0.00,WeatherDisplay:10.37,2013-02-21 13:10:00,
2013-02-21 08:15:00,24.2,10.7,29.83,WNW,286,13.8,13.8,56,0.00,CLR,FEW,0.00,WeatherDisplay:10.37,2013-02-21 13:15:00,
2013-02-21 08:20:00,24.1,10.6,29.82,WSW,256,11.0,11.0,56,0.00,CLR,FEW,0.00,WeatherDisplay:10.37,2013-02-21 13:20:00,
2013-02-21 08:25:00,24.1,10.2,29.82,WNW,294,18.4,18.4,55,0.00,CLR,FEW,0.00,WeatherDisplay:10.37,2013-02-21 13:25:00,
2013-02-21 08:30:00,24.2,10.3,29.82,WNW,288,17.3,17.3,55,0.00,CLR,FEW,0.00,WeatherDisplay:10.37,2013-02-21 13:30:00,
2013-02-21 08:35:00,24.3,10.4,29.82,West,271,27.0,27.0,55,0.00,CLR,FEW,0.00,WeatherDisplay:10.37,2013-02-21 13:35:00,
2013-02-21 08:40:00,24.2,10.3,29.82,West,265,19.6,19.6,55,0.00,CLR,FEW,0.00,WeatherDisplay:10.37,2013-02-21 13:40:00,
2013-02-21 08:45:00,24.3,10.4,29.81,West,268,23.0,23.0,55,0.00,CLR,FEW,0.00,WeatherDisplay:10.37,2013-02-21 13:45:00,
2013-02-21 08:50:00,24.5,10.6,29.81,West,263,11.5,11.5,55,0.00,CLR,FEW,0.00,WeatherDisplay:10.37,2013-02-21 13:50:00,
2013-02-21 08:55:00,24.5,10.6,29.81,WNW,292,20.7,20.7,55,0.00,CLR,FEW,0.00,WeatherDisplay:10.37,2013-02-21 13:55:00,
2013-02-21 09:00:00,24.6,10.7,29.80,WNW,282,31.1,31.1,55,0.00,CLR,FEW,0.00,WeatherDisplay:10.37,2013-02-21 14:00:00,
2013-02-21 09:05:00,24.7,10.4,29.80,NNW,333,26.5,26.5,54,0.00,CLR,FEW,0.00,WeatherDisplay:10.37,2013-02-21 14:05:00,
2013-02-21 09:10:00,24.9,10.2,29.81,WNW,288,32.2,32.2,53,0.00,CLR,FEW,0.00,WeatherDisplay:10.37,2013-02-21 14:10:00,
2013-02-21 09:15:00,25.0,10.3,29.80,West,280,28.8,28.8,53,0.00,CLR,FEW,0.00,WeatherDisplay:10.37,2013-02-21 14:15:00,
2013-02-21 09:20:00,25.3,10.5,29.80,WNW,297,18.4,18.4,53,0.00,CLR,FEW,0.00,WeatherDisplay:10.37,2013-02-21 14:20:00,
2013-02-21 09:25:00,25.7,10.9,29.80,WNW,293,21.9,21.9,53,0.00,CLR,FEW,0.00,WeatherDisplay:10.37,2013-02-21 14:25:00,
2013-02-21 09:30:00,25.7,10.5,29.80,NW,320,21.9,21.9,52,0.00,CLR,FEW,0.00,WeatherDisplay:10.37,2013-02-21 14:30:00,
2013-02-21 09:35:00,25.9,10.7,29.79,NW,307,26.5,26.5,52,0.00,CLR,FEW,0.00,WeatherDisplay:10.37,2013-02-21 14:35:00,
2013-02-21 09:40:00,25.9,10.7,29.79,WNW,299,33.4,33.4,52,0.00,CLR,FEW,0.00,WeatherDisplay:10.37,2013-02-21 14:40:00,
2013-02-21 09:45:00,26.2,10.9,29.80,WNW,302,21.9,21.9,52,0.00,CLR,FEW,0.00,WeatherDisplay:10.37,2013-02-21 14:45:00,
2013-02-21 09:50:00,26.2,10.5,29.79,NW,315,33.4,33.4,51,0.00,CLR,FEW,0.00,WeatherDisplay:10.37,2013-02-21 14:50:00,
2013-02-21 09:55:00,26.3,11.0,29.79,West,267,25.3,25.3,52,0.00,CLR,FEW,0.00,WeatherDisplay:10.37,2013-02-21 14:55:00,
2013-02-21 10:00:00,26.8,11.5,29.79,WNW,286,32.2,32.2,52,0.00,CLR,FEW,0.00,WeatherDisplay:10.37,2013-02-21 15:00:00,
2013-02-21 10:05:00,26.9,11.2,29.78,West,275,25.3,25.3,51,0.00,CLR,FEW,0.00,WeatherDisplay:10.37,2013-02-21 15:05:00,
2013-02-21 10:10:00,27.4,12.1,29.79,West,279,16.1,16.1,52,0.00,CLR,FEW,0.00,WeatherDisplay:10.37,2013-02-21 15:10:00,
2013-02-21 10:15:00,27.6,11.8,29.79,WNW,286,32.2,32.2,51,0.00,CLR,FEW,0.00,WeatherDisplay:10.37,2013-02-21 15:15:00,
2013-02-21 10:20:00,27.4,11.6,29.79,West,281,20.7,20.7,51,0.00,CLR,FEW,0.00,WeatherDisplay:10.37,2013-02-21 15:20:00,
2013-02-21 10:25:00,27.2,11.9,29.79,WNW,283,15.0,15.0,52,0.00,CLR,FEW,0.00,WeatherDisplay:10.37,2013-02-21 15:25:00,
2013-02-21 10:30:00,27.7,11.9,29.80,West,281,25.3,25.3,51,0.00,CLR,FEW,0.00,WeatherDisplay:10.37,2013-02-21 15:30:00,
2013-02-21 10:35:00,27.8,12.4,29.80,WNW,303,18.4,18.4,52,0.00,CLR,FEW,0.00,WeatherDisplay:10.37,2013-02-21 15:35:00,
2013-02-21 10:40:00,27.7,11.9,29.80,West,270,25.3,25.3,51,0.00,CLR,FEW,0.00,WeatherDisplay:10.37,2013-02-21 15:40:00,
2013-02-21 10:45:00,28.1,12.3,29.82,WNW,286,26.5,26.5,51,0.00,CLR,FEW,0.00,WeatherDisplay:10.37,2013-02-21 15:45:00,
2013-02-21 10:50:00,27.8,12.0,29.81,NNW,331,23.0,23.0,51,0.00,CLR,FEW,0.00,WeatherDisplay:10.37,2013-02-21 15:50:00,
2013-02-21 10:55:00,27.8,12.4,29.82,WNW,298,20.7,20.7,52,0.00,CLR,FEW,0.00,WeatherDisplay:10.37,2013-02-21 15:55:00,
2013-02-21 11:00:00,27.8,12.0,29.82,NNW,332,28.8,28.8,51,0.00,CLR,FEW,0.00,WeatherDisplay:10.37,2013-02-21 16:00:00,
2013-02-21 11:05:00,27.6,12.2,29.82,NW,307,19.6,19.6,52,0.00,CLR,FEW,0.00,WeatherDisplay:10.37,2013-02-21 16:05:00,
2013-02-21 11:10:00,27.8,12.4,29.83,NW,305,19.6,19.6,52,0.00,CLR,FEW,0.00,WeatherDisplay:10.37,2013-02-21 16:10:00,
2013-02-21 11:15:00,27.7,12.3,29.83,NW,307,17.3,17.3,52,0.00,CLR,FEW,0.00,WeatherDisplay:10.37,2013-02-21 16:15:00,
2013-02-21 11:20:00,27.7,11.9,29.83,WNW,292,26.5,26.5,51,0.00,CLR,FEW,0.00,WeatherDisplay:10.37,2013-02-21 16:20:00,
2013-02-21 11:25:00,27.6,11.8,29.82,NW,322,17.3,17.3,51,0.00,CLR,FEW,0.00,WeatherDisplay:10.37,2013-02-21 16:25:00,
2013-02-21 11:30:00,27.6,11.8,29.82,NNW,330,25.3,25.3,51,0.00,CLR,FEW,0.00,WeatherDisplay:10.37,2013-02-21 16:30:00,
2013-02-21 11:35:00,27.7,11.9,29.82,NW,311,25.3,25.3,51,0.00,CLR,FEW,0.00,WeatherDisplay:10.37,2013-02-21 16:35:00,
2013-02-21 11:40:00,27.7,11.9,29.82,NW,324,19.6,19.6,51,0.00,CLR,FEW,0.00,WeatherDisplay:10.37,2013-02-21 16:40:00,
2013-02-21 11:45:00,27.9,12.5,29.82,West,265,11.5,11.5,52,0.00,CLR,FEW,0.00,WeatherDisplay:10.37,2013-02-21 16:45:00,
2013-02-21 11:50:00,28.1,11.8,29.82,WNW,289,20.0,20.0,50,0.00,CLR,FEW,0.00,WeatherDisplay:10.37,2013-02-21 16:50:00,
2013-02-21 11:56:00,28.2,12.4,29.82,WNW,292,19.6,19.6,51,0.00,CLR,FEW,0.00,WeatherDisplay:10.37,2013-02-21 16:56:00,
2013-02-21 12:01:00,28.5,13.1,29.82,WNW,301,21.9,21.9,52,0.00,CLR,FEW,0.00,WeatherDisplay:10.37,2013-02-21 17:01:00,
2013-02-21 12:06:00,28.5,12.6,29.82,WNW,293,21.9,21.9,51,0.00,CLR,FEW,0.00,WeatherDisplay:10.37,2013-02-21 17:06:00,
2013-02-21 12:11:00,29.0,12.7,29.83,NW,313,20.7,20.7,50,0.00,CLR,FEW,0.00,WeatherDisplay:10.37,2013-02-21 17:11:00,
2013-02-21 12:16:00,28.8,12.9,29.82,WNW,287,15.0,15.0,51,0.00,CLR,FEW,0.00,WeatherDisplay:10.37,2013-02-21 17:16:00,
2013-02-21 12:21:00,29.0,12.7,29.82,NW,321,20.7,20.7,50,0.00,CLR,FEW,0.00,WeatherDisplay:10.37,2013-02-21 17:21:00,
2013-02-21 12:26:00,29.2,13.3,29.81,West,281,21.9,21.9,51,0.00,CLR,FEW,0.00,WeatherDisplay:10.37,2013-02-21 17:26:00,
2013-02-21 12:31:00,29.3,12.9,29.81,NW,306,23.0,23.0,50,0.00,CLR,FEW,0.00,WeatherDisplay:10.37,2013-02-21 17:31:00,
2013-02-21 12:36:00,28.9,12.6,29.81,WNW,291,15.0,15.0,50,0.00,CLR,FEW,0.00,WeatherDisplay:10.37,2013-02-21 17:36:00,
2013-02-21 12:41:00,29.6,13.2,29.81,WNW,292,18.4,18.4,50,0.00,CLR,FEW,0.00,WeatherDisplay:10.37,2013-02-21 17:41:00,
2013-02-21 12:46:00,29.1,12.3,29.81,NW,326,19.6,19.6,49,0.00,CLR,FEW,0.00,WeatherDisplay:10.37,2013-02-21 17:46:00,
2013-02-21 12:51:00,29.1,12.8,29.80,WNW,298,17.0,17.0,50,0.00,CLR,FEW,0.00,WeatherDisplay:10.37,2013-02-21 17:51:00,
2013-02-21 12:56:00,28.9,12.6,29.81,NW,310,19.6,19.6,50,0.00,CLR,FEW,0.00,WeatherDisplay:10.37,2013-02-21 17:56:00,
2013-02-21 13:01:00,29.3,12.5,29.81,NW,317,26.5,26.5,49,0.00,CLR,FEW,0.00,WeatherDisplay:10.37,2013-02-21 18:01:00,
2013-02-21 13:06:00,29.1,12.3,29.81,NW,324,28.8,28.8,49,0.00,CLR,FEW,0.00,WeatherDisplay:10.37,2013-02-21 18:06:00,
2013-02-21 13:11:00,28.7,11.9,29.81,WNW,286,20.7,20.7,49,0.00,CLR,FEW,0.00,WeatherDisplay:10.37,2013-02-21 18:11:00,
2013-02-21 13:16:00,29.2,12.4,29.80,NW,308,25.3,25.3,49,0.00,CLR,FEW,0.00,WeatherDisplay:10.37,2013-02-21 18:16:00,
2013-02-21 13:21:00,29.1,12.3,29.81,NW,314,26.5,26.5,49,0.00,CLR,FEW,0.00,WeatherDisplay:10.37,2013-02-21 18:21:00,
2013-02-21 13:26:00,29.4,13.0,29.82,NW,317,24.2,24.2,50,0.00,CLR,FEW,0.00,WeatherDisplay:10.37,2013-02-21 18:26:00,
2013-02-21 13:31:00,29.4,13.0,29.81,WNW,296,21.9,21.9,50,0.00,CLR,FEW,0.00,WeatherDisplay:10.37,2013-02-21 18:31:00,
2013-02-21 13:36:00,29.9,13.9,29.81,WNW,284,19.6,19.6,51,0.00,CLR,FEW,0.00,WeatherDisplay:10.37,2013-02-21 18:36:00,
2013-02-21 13:41:00,29.7,12.8,29.82,NW,311,25.3,25.3,49,0.00,CLR,FEW,0.00,WeatherDisplay:10.37,2013-02-21 18:41:00,
2013-02-21 13:46:00,29.5,12.7,29.81,WNW,296,16.1,16.1,49,0.00,CLR,FEW,0.00,WeatherDisplay:10.37,2013-02-21 18:46:00,
2013-02-21 13:51:00,30.2,13.8,29.81,NW,309,18.4,18.4,50,0.00,CLR,FEW,0.00,WeatherDisplay:10.37,2013-02-21 18:51:00,
2013-02-21 13:56:00,29.7,12.8,29.81,WNW,283,26.5,26.5,49,0.00,CLR,FEW,0.00,WeatherDisplay:10.37,2013-02-21 18:56:00,
2013-02-21 14:01:00,29.4,13.0,29.81,NW,323,24.2,24.2,50,0.00,CLR,FEW,0.00,WeatherDisplay:10.37,2013-02-21 19:01:00,
2013-02-21 14:06:00,29.8,12.9,29.81,NNW,335,18.4,18.4,49,0.00,CLR,FEW,0.00,WeatherDisplay:10.37,2013-02-21 19:06:00,
2013-02-21 14:11:00,29.5,12.7,29.81,West,275,20.7,20.7,49,0.00,CLR,FEW,0.00,WeatherDisplay:10.37,2013-02-21 19:11:00,
2013-02-21 14:16:00,29.5,12.7,29.82,West,267,23.0,23.0,49,0.00,CLR,FEW,0.00,WeatherDisplay:10.37,2013-02-21 19:16:00,
2013-02-21 14:21:00,29.8,13.4,29.82,WNW,296,17.3,17.3,50,0.00,CLR,FEW,0.00,WeatherDisplay:10.37,2013-02-21 19:21:00,
2013-02-21 14:26:00,29.7,12.8,29.82,West,277,27.6,27.6,49,0.00,CLR,FEW,0.00,WeatherDisplay:10.37,2013-02-21 19:26:00,
2013-02-21 14:31:00,29.8,13.4,29.82,West,276,22.0,22.0,50,0.00,CLR,FEW,0.00,WeatherDisplay:10.37,2013-02-21 19:31:00,
2013-02-21 14:36:00,30.3,13.9,29.82,WNW,294,20.7,20.7,50,0.00,CLR,FEW,0.00,WeatherDisplay:10.37,2013-02-21 19:36:00,
2013-02-21 14:41:00,30.4,13.5,29.82,West,270,24.2,24.2,49,0.00,CLR,FEW,0.00,WeatherDisplay:10.37,2013-02-21 19:41:00,
2013-02-21 14:46:00,30.2,13.3,29.82,NW,309,26.5,26.5,49,0.00,CLR,FEW,0.00,WeatherDisplay:10.37,2013-02-21 19:46:00,
2013-02-21 14:51:00,30.0,13.1,29.82,WNW,293,33.0,33.0,49,0.00,CLR,FEW,0.00,WeatherDisplay:10.37,2013-02-21 19:51:00,
2013-02-21 14:56:00,29.8,12.9,29.82,NW,306,26.5,26.5,49,0.00,CLR,FEW,0.00,WeatherDisplay:10.37,2013-02-21 19:56:00,
2013-02-21 15:01:00,29.9,13.5,29.83,WNW,296,28.0,28.0,50,0.00,CLR,FEW,0.00,WeatherDisplay:10.37,2013-02-21 20:01:00,
2013-02-21 15:06:00,29.6,12.8,29.83,West,273,20.7,20.7,49,0.00,CLR,FEW,0.00,WeatherDisplay:10.37,2013-02-21 20:06:00,
2013-02-21 15:11:00,30.0,13.6,29.84,NW,314,24.2,24.2,50,0.00,CLR,FEW,0.00,WeatherDisplay:10.37,2013-02-21 20:11:00,
2013-02-21 15:16:00,29.7,13.3,29.84,NW,304,31.1,31.1,50,0.00,CLR,FEW,0.00,WeatherDisplay:10.37,2013-02-21 20:16:00,
2013-02-21 15:21:00,30.0,13.1,29.85,West,280,22.0,22.0,49,0.00,CLR,FEW,0.00,WeatherDisplay:10.37,2013-02-21 20:21:00,
2013-02-21 15:26:00,29.8,12.9,29.84,WNW,302,31.1,31.1,49,0.00,CLR,FEW,0.00,WeatherDisplay:10.37,2013-02-21 20:26:00,
2013-02-21 15:31:00,29.7,13.3,29.84,NW,304,26.5,26.5,50,0.00,CLR,FEW,0.00,WeatherDisplay:10.37,2013-02-21 20:31:00,
2013-02-21 15:36:00,29.7,12.8,29.84,WNW,285,21.9,21.9,49,0.00,CLR,FEW,0.00,WeatherDisplay:10.37,2013-02-21 20:36:00,
2013-02-21 15:41:00,29.7,13.3,29.84,West,278,26.0,26.0,50,0.00,CLR,FEW,0.00,WeatherDisplay:10.37,2013-02-21 20:41:00,
2013-02-21 15:46:00,29.7,12.8,29.84,WNW,288,21.9,21.9,49,0.00,CLR,FEW,0.00,WeatherDisplay:10.37,2013-02-21 20:46:00,
2013-02-21 15:51:00,29.8,13.4,29.85,NW,315,28.8,28.8,50,0.00,CLR,FEW,0.00,WeatherDisplay:10.37,2013-02-21 20:51:00,
2013-02-21 15:56:00,29.6,12.8,29.85,NW,311,23.0,23.0,49,0.00,CLR,FEW,0.00,WeatherDisplay:10.37,2013-02-21 20:56:00,
2013-02-21 16:01:00,29.5,13.1,29.85,NW,306,24.2,24.2,50,0.00,CLR,FEW,0.00,WeatherDisplay:10.37,2013-02-21 21:01:00,
2013-02-21 16:06:00,29.3,12.9,29.86,NW,313,23.0,23.0,50,0.00,CLR,FEW,0.00,WeatherDisplay:10.37,2013-02-21 21:06:00,
2013-02-21 16:11:00,29.3,12.9,29.86,West,278,19.6,19.6,50,0.00,CLR,FEW,0.00,WeatherDisplay:10.37,2013-02-21 21:11:00,
2013-02-21 16:16:00,29.5,13.1,29.86,WNW,294,25.3,25.3,50,0.00,CLR,FEW,0.00,WeatherDisplay:10.37,2013-02-21 21:16:00,
2013-02-21 16:21:00,29.6,13.2,29.86,NNW,348,19.6,19.6,50,0.00,CLR,FEW,0.00,WeatherDisplay:10.37,2013-02-21 21:21:00,
2013-02-21 16:26:00,29.5,13.1,29.87,NW,308,25.3,25.3,50,0.00,CLR,FEW,0.00,WeatherDisplay:10.37,2013-02-21 21:26:00,
2013-02-21 16:31:00,29.4,13.5,29.88,NNW,330,13.8,13.8,51,0.00,CLR,FEW,0.00,WeatherDisplay:10.37,2013-02-21 21:31:00,
2013-02-21 16:36:00,29.7,13.8,29.88,NNW,344,11.5,11.5,51,0.00,CLR,FEW,0.00,WeatherDisplay:10.37,2013-02-21 21:36:00,
2013-02-21 16:41:00,29.8,13.9,29.88,NNW,332,10.4,10.4,51,0.00,CLR,FEW,0.00,WeatherDisplay:10.37,2013-02-21 21:41:00,
2013-02-21 16:46:00,29.8,13.9,29.89,NW,309,20.7,20.7,51,0.00,CLR,FEW,0.00,WeatherDisplay:10.37,2013-02-21 21:46:00,
2013-02-21 16:51:00,29.4,13.5,29.89,NNW,333,15.0,15.0,51,0.00,CLR,FEW,0.00,WeatherDisplay:10.37,2013-02-21 21:51:00,
2013-02-21 16:56:00,29.1,13.2,29.89,NW,317,21.9,21.9,51,0.00,CLR,FEW,0.00,WeatherDisplay:10.37,2013-02-21 21:56:00,
2013-02-21 17:01:00,29.0,13.1,29.90,NNW,327,15.0,15.0,51,0.00,CLR,FEW,0.00,WeatherDisplay:10.37,2013-02-21 22:01:00,
2013-02-21 17:06:00,28.9,13.5,29.90,NW,318,18.0,18.0,52,0.00,CLR,FEW,0.00,WeatherDisplay:10.37,2013-02-21 22:06:00,
2013-02-21 17:11:00,28.6,13.2,29.90,North,358,15.0,15.0,52,0.00,CLR,FEW,0.00,WeatherDisplay:10.37,2013-02-21 22:11:00,
2013-02-21 17:16:00,28.4,13.0,29.90,NW,306,16.1,16.1,52,0.00,CLR,FEW,0.00,WeatherDisplay:10.37,2013-02-21 22:16:00,
2013-02-21 17:21:00,28.3,13.3,29.92,NW,313,24.2,24.2,53,0.00,CLR,FEW,0.00,WeatherDisplay:10.37,2013-02-21 22:21:00,
2013-02-21 17:26:00,28.0,13.1,29.92,NNW,342,13.8,13.8,53,0.00,CLR,FEW,0.00,WeatherDisplay:10.37,2013-02-21 22:26:00,
2013-02-21 17:31:00,27.9,13.4,29.92,NW,308,23.0,23.0,54,0.00,CLR,FEW,0.00,WeatherDisplay:10.37,2013-02-21 22:31:00,
2013-02-21 17:36:00,27.8,12.9,29.92,NW,322,11.5,11.5,53,0.00,CLR,FEW,0.00,WeatherDisplay:10.37,2013-02-21 22:36:00,
2013-02-21 17:41:00,27.7,13.6,29.94,NW,319,17.3,17.3,55,0.00,CLR,FEW,0.00,WeatherDisplay:10.37,2013-02-21 22:41:00,
2013-02-21 17:46:00,27.5,13.0,29.93,NW,323,21.9,21.9,54,0.00,CLR,FEW,0.00,WeatherDisplay:10.37,2013-02-21 22:46:00,
2013-02-21 17:51:00,27.3,12.8,29.93,WNW,283,20.7,20.7,54,0.00,CLR,FEW,0.00,WeatherDisplay:10.37,2013-02-21 22:51:00,
2013-02-21 17:56:00,27.2,12.7,29.94,NW,324,12.7,12.7,54,0.00,CLR,FEW,0.00,WeatherDisplay:10.37,2013-02-21 22:56:00,
2013-02-21 18:01:00,27.1,13.1,29.94,NW,309,15.0,15.0,55,0.00,CLR,FEW,0.00,WeatherDisplay:10.37,2013-02-21 23:01:00,
2013-02-21 18:06:00,26.9,12.9,29.93,North,0,15.0,15.0,55,0.00,CLR,FEW,0.00,WeatherDisplay:10.37,2013-02-21 23:06:00,
2013-02-21 18:11:00,26.7,12.7,29.94,NW,312,11.5,11.5,55,0.00,CLR,FEW,0.00,WeatherDisplay:10.37,2013-02-21 23:11:00,
2013-02-21 18:16:00,26.6,13.0,29.94,NW,314,16.0,16.0,56,0.00,CLR,FEW,0.00,WeatherDisplay:10.37,2013-02-21 23:16:00,
2013-02-21 18:21:00,26.4,12.8,29.94,NW,316,18.4,18.4,56,0.00,CLR,FEW,0.00,WeatherDisplay:10.37,2013-02-21 23:21:00,
2013-02-21 18:26:00,26.2,12.6,29.93,NW,317,21.9,21.9,56,0.00,CLR,FEW,0.00,WeatherDisplay:10.37,2013-02-21 23:26:00,
2013-02-21 18:31:00,26.0,12.8,29.94,North,354,16.1,16.1,57,0.00,CLR,FEW,0.00,WeatherDisplay:10.37,2013-02-21 23:31:00,
2013-02-21 18:36:00,26.0,12.8,29.94,NNW,337,17.3,17.3,57,0.00,CLR,FEW,0.00,WeatherDisplay:10.37,2013-02-21 23:36:00,
2013-02-21 18:41:00,25.8,12.6,29.94,NNW,334,18.4,18.4,57,0.00,CLR,FEW,0.00,WeatherDisplay:10.37,2013-02-21 23:41:00,
2013-02-21 18:46:00,25.7,12.6,29.94,NW,318,19.6,19.6,57,0.00,CLR,FEW,0.00,WeatherDisplay:10.37,2013-02-21 23:46:00,
2013-02-21 18:51:00,25.6,12.9,29.95,NW,320,16.1,16.1,58,0.00,CLR,FEW,0.00,WeatherDisplay:10.37,2013-02-21 23:51:00,
2013-02-21 18:56:00,25.6,12.9,29.95,NW,306,16.1,16.1,58,0.00,CLR,FEW,0.00,WeatherDisplay:10.37,2013-02-21 23:56:00,
2013-02-21 19:01:00,25.5,12.8,29.95,NW,320,15.0,15.0,58,0.00,CLR,FEW,0.00,WeatherDisplay:10.37,2013-02-22 00:01:00,
2013-02-21 19:06:00,25.4,13.1,29.97,NNW,331,9.2,9.2,59,0.00,CLR,FEW,0.00,WeatherDisplay:10.37,2013-02-22 00:06:00,
2013-02-21 19:11:00,25.3,12.6,29.97,NW,305,20.7,20.7,58,0.00,CLR,FEW,0.00,WeatherDisplay:10.37,2013-02-22 00:11:00,
2013-02-21 19:16:00,25.3,13.3,29.98,WNW,299,19.6,19.6,60,0.00,CLR,FEW,0.00,WeatherDisplay:10.37,2013-02-22 00:16:00,
2013-02-21 19:21:00,25.3,13.0,29.99,NNW,345,16.1,16.1,59,0.00,CLR,FEW,0.00,WeatherDisplay:10.37,2013-02-22 00:21:00,
2013-02-21 19:26:00,25.2,12.9,29.99,WNW,301,16.1,16.1,59,0.00,CLR,FEW,0.00,WeatherDisplay:10.37,2013-02-22 00:26:00,
2013-02-21 19:31:00,25.2,12.9,30.00,NW,324,15.0,15.0,59,0.00,CLR,FEW,0.00,WeatherDisplay:10.37,2013-02-22 00:31:00,
2013-02-21 19:36:00,25.2,12.9,30.00,WNW,299,18.4,18.4,59,0.00,CLR,FEW,0.00,WeatherDisplay:10.37,2013-02-22 00:36:00,
2013-02-21 19:41:00,25.1,12.8,30.01,NNW,342,11.5,11.5,59,0.00,CLR,FEW,0.00,WeatherDisplay:10.37,2013-02-22 00:41:00,
2013-02-21 19:46:00,25.0,12.7,30.01,NNW,333,9.2,9.2,59,0.00,CLR,FEW,0.00,WeatherDisplay:10.37,2013-02-22 00:46:00,
2013-02-21 19:51:00,24.9,13.0,30.02,NW,325,16.1,16.1,60,0.00,CLR,FEW,0.00,WeatherDisplay:10.37,2013-02-22 00:51:00,
2013-02-21 19:56:00,24.5,13.0,30.03,NNW,341,18.4,18.4,61,0.00,CLR,FEW,0.00,WeatherDisplay:10.37,2013-02-22 00:56:00,
2013-02-21 20:01:00,25.1,13.2,30.05,NW,306,14.0,14.0,60,0.00,CLR,FEW,0.00,WeatherDisplay:10.37,2013-02-22 01:01:00,
2013-02-21 20:06:00,24.8,13.2,30.05,WNW,298,15.0,15.0,61,0.00,CLR,FEW,0.00,WeatherDisplay:10.37,2013-02-22 01:06:00,
2013-02-21 20:11:00,24.9,13.3,30.06,NW,308,16.1,16.1,61,0.00,CLR,FEW,0.00,WeatherDisplay:10.37,2013-02-22 01:11:00,
2013-02-21 20:16:00,24.7,12.8,30.06,NW,312,15.0,15.0,60,0.00,CLR,FEW,0.00,WeatherDisplay:10.37,2013-02-22 01:16:00,
2013-02-21 20:21:00,24.5,12.6,30.06,NW,313,11.5,11.5,60,0.00,CLR,FEW,0.00,WeatherDisplay:10.37,2013-02-22 01:21:00,
2013-02-21 20:26:00,24.5,12.6,30.06,NW,324,15.0,15.0,60,0.00,CLR,FEW,0.00,WeatherDisplay:10.37,2013-02-22 01:26:00,
2013-02-21 20:31:00,24.5,13.0,30.07,NNW,329,10.4,10.4,61,0.00,CLR,FEW,0.00,WeatherDisplay:10.37,2013-02-22 01:31:00,
2013-02-21 20:36:00,24.4,12.5,30.07,NW,313,6.9,6.9,60,0.00,CLR,FEW,0.00,WeatherDisplay:10.37,2013-02-22 01:36:00,
2013-02-21 20:41:00,24.4,12.9,30.07,NW,317,13.0,13.0,61,0.00,CLR,FEW,0.00,WeatherDisplay:10.37,2013-02-22 01:41:00,
2013-02-21 20:46:00,24.3,12.8,30.07,NW,312,11.5,11.5,61,0.00,CLR,FEW,0.00,WeatherDisplay:10.37,2013-02-22 01:46:00,
2013-02-21 20:51:00,24.2,12.7,30.08,NNW,330,9.2,9.2,61,0.00,CLR,FEW,0.00,WeatherDisplay:10.37,2013-02-22 01:51:00,
2013-02-21 20:56:00,24.1,12.6,30.09,NW,308,16.1,16.1,61,0.00,CLR,FEW,0.00,WeatherDisplay:10.37,2013-02-22 01:56:00,
2013-02-21 21:01:00,23.9,12.4,30.09,WNW,284,10.4,10.4,61,0.00,CLR,FEW,0.00,WeatherDisplay:10.37,2013-02-22 02:01:00,
2013-02-21 21:06:00,23.8,12.7,30.10,NW,307,10.4,10.4,62,0.00,CLR,FEW,0.00,WeatherDisplay:10.37,2013-02-22 02:06:00,
2013-02-21 21:11:00,23.7,12.6,30.10,NW,315,6.9,6.9,62,0.00,CLR,FEW,0.00,WeatherDisplay:10.37,2013-02-22 02:11:00,
2013-02-21 21:16:00,23.6,12.5,30.10,NNW,341,10.4,10.4,62,0.00,CLR,FEW,0.00,WeatherDisplay:10.37,2013-02-22 02:16:00,
2013-02-21 21:21:00,23.5,12.4,30.09,NW,325,11.5,11.5,62,0.00,CLR,FEW,0.00,WeatherDisplay:10.37,2013-02-22 02:21:00,
2013-02-21 21:26:00,23.4,12.3,30.10,NW,314,13.8,13.8,62,0.00,CLR,FEW,0.00,WeatherDisplay:10.37,2013-02-22 02:26:00,
2013-02-21 21:31:00,23.2,12.1,30.10,NNW,329,11.5,11.5,62,0.00,CLR,FEW,0.00,WeatherDisplay:10.37,2013-02-22 02:31:00,
2013-02-21 21:36:00,23.1,12.0,30.10,WNW,282,15.0,15.0,62,0.00,CLR,FEW,0.00,WeatherDisplay:10.37,2013-02-22 02:36:00,
2013-02-21 21:41:00,23.0,11.9,30.10,WNW,300,10.4,10.4,62,0.00,CLR,FEW,0.00,WeatherDisplay:10.37,2013-02-22 02:41:00,
2013-02-21 21:46:00,22.8,11.7,30.11,West,279,11.5,11.5,62,0.00,CLR,FEW,0.00,WeatherDisplay:10.37,2013-02-22 02:46:00,
2013-02-21 21:51:00,23.0,11.9,30.11,NW,324,12.0,12.0,62,0.00,CLR,FEW,0.00,WeatherDisplay:10.37,2013-02-22 02:51:00,
2013-02-21 21:56:00,22.7,11.6,30.11,NW,311,10.4,10.4,62,0.00,CLR,FEW,0.00,WeatherDisplay:10.37,2013-02-22 02:56:00,
2013-02-21 22:01:00,23.0,11.9,30.10,WNW,298,13.8,13.8,62,0.00,CLR,FEW,0.00,WeatherDisplay:10.37,2013-02-22 03:01:00,
2013-02-21 22:06:00,22.7,11.6,30.10,NW,308,15.0,15.0,62,0.00,CLR,FEW,0.00,WeatherDisplay:10.37,2013-02-22 03:06:00,
2013-02-21 22:11:00,22.9,11.8,30.10,NNW,328,10.0,10.0,62,0.00,CLR,FEW,0.00,WeatherDisplay:10.37,2013-02-22 03:11:00,
2013-02-21 22:16:00,22.8,11.7,30.11,NNW,330,12.7,12.7,62,0.00,CLR,FEW,0.00,WeatherDisplay:10.37,2013-02-22 03:16:00,
2013-02-21 22:21:00,22.9,11.8,30.11,NW,324,11.5,11.5,62,0.00,CLR,FEW,0.00,WeatherDisplay:10.37,2013-02-22 03:21:00,
2013-02-21 22:26:00,22.9,11.8,30.11,NW,323,5.8,5.8,62,0.00,CLR,FEW,0.00,WeatherDisplay:10.37,2013-02-22 03:26:00,
2013-02-21 22:31:00,22.9,12.2,30.11,NW,306,9.2,9.2,63,0.00,CLR,FEW,0.00,WeatherDisplay:10.37,2013-02-22 03:31:00,
2013-02-21 22:36:00,22.9,12.2,30.12,NW,309,11.5,11.5,63,0.00,CLR,FEW,0.00,WeatherDisplay:10.37,2013-02-22 03:36:00,
2013-02-21 22:41:00,23.0,12.3,30.11,West,281,8.1,8.1,63,0.00,CLR,FEW,0.00,WeatherDisplay:10.37,2013-02-22 03:41:00,
2013-02-21 22:46:00,23.0,12.3,30.12,NW,323,8.1,8.1,63,0.00,CLR,FEW,0.00,WeatherDisplay:10.37,2013-02-22 03:46:00,
2013-02-21 22:51:00,23.0,12.3,30.12,North,357,11.5,11.5,63,0.00,CLR,FEW,0.00,WeatherDisplay:10.37,2013-02-22 03:51:00,
2013-02-21 22:56:00,23.0,12.3,30.12,NNW,335,10.4,10.4,63,0.00,CLR,FEW,0.00,WeatherDisplay:10.37,2013-02-22 03:56:00,
2013-02-21 23:01:00,23.1,12.4,30.12,NNW,330,13.8,13.8,63,0.00,CLR,FEW,0.00,WeatherDisplay:10.37,2013-02-22 04:01:00,
2013-02-21 23:06:00,23.1,12.4,30.12,NNW,334,9.2,9.2,63,0.00,CLR,FEW,0.00,WeatherDisplay:10.37,2013-02-22 04:06:00,
2013-02-21 23:11:00,23.0,12.3,30.12,NNW,337,9.2,9.2,63,0.00,CLR,FEW,0.00,WeatherDisplay:10.37,2013-02-22 04:11:00,
2013-02-21 23:17:00,23.0,13.0,30.12,NNW,333,11.5,11.5,65,0.00,CLR,FEW,0.00,WeatherDisplay:10.37,2013-02-22 04:17:00,
2013-02-21 23:22:00,22.9,12.2,30.13,NNW,344,8.1,8.1,63,0.00,CLR,FEW,0.00,WeatherDisplay:10.37,2013-02-22 04:22:00,
2013-02-21 23:27:00,22.8,12.1,30.13,NNW,345,9.2,9.2,63,0.00,CLR,FEW,0.00,WeatherDisplay:10.37,2013-02-22 04:27:00,
2013-02-21 23:32:00,22.8,12.1,30.13,North,349,9.2,9.2,63,0.00,CLR,FEW,0.00,WeatherDisplay:10.37,2013-02-22 04:32:00,
2013-02-21 23:37:00,22.8,12.4,30.13,NNW,347,15.0,15.0,64,0.00,CLR,FEW,0.00,WeatherDisplay:10.37,2013-02-22 04:37:00,
2013-02-21 23:42:00,22.7,12.3,30.13,North,355,13.8,13.8,64,0.00,CLR,FEW,0.00,WeatherDisplay:10.37,2013-02-22 04:42:00,
2013-02-21 23:47:00,22.8,12.4,30.14,NNW,347,12.7,12.7,64,0.00,CLR,FEW,0.00,WeatherDisplay:10.37,2013-02-22 04:47:00,
2013-02-21 23:52:00,22.7,12.3,30.12,North,359,17.3,17.3,64,0.00,CLR,FEW,0.00,WeatherDisplay:10.37,2013-02-22 04:52:00,
2013-02-21 23:57:00,23.0,12.6,30.14,North,1,13.8,13.8,64,0.00,CLR,FEW,0.00,WeatherDisplay:10.37,2013-02-22 04:57:00,